Preview of NWS' New Version of Forecast
This preview is not operational and should not be used for support decisions.

Regional Weather Roundup (RWR)

Issued by Gray - Portland, ME (GYX)

                            
000
ASUS41 KGYX 230905
RWRGYX
WEATHER ROUNDUP FOR MAINE AND NEW HAMPSHIRE
NATIONAL WEATHER SERVICE GRAY ME
500 AM EDT FRI AUG 23 2019

MEZ002-005-006-010-012-015-018-020-021-024-026-027-029-231000-
MAINE
  
CITY           SKY/WX    TMP DP  RH WIND       PRES   REMARKS
PORTLAND       MOCLDY    66  59  78 CALM      29.88R                  
SANFORD        MOCLDY    62  59  90 CALM      29.89R                  
BAR HARBOR     FAIR      62  61  96 CALM      29.85R                  
WISCASSET      FAIR      59  57  93 CALM      29.88R                  
ROCKLAND       FAIR      63  59  87 W6        29.86R                  
FRYEBURG       FAIR      62  53  72 W5        29.90R                  
LEWISTONAUBURN FAIR      61  57  87 N3        29.89R                  
AUGUSTA        FAIR      64  56  75 W5        29.88R                  
WATERVILLE     FAIR      59  56  89 W3        29.84S                  
BANGOR         FAIR      62  59  90 W5        29.85R                  
GREENVILLE       N/A     56  54  93 CALM      29.85S                  
MILLINOCKET    FAIR      57  55  93 CALM      29.84S                  
HOULTON        FAIR      52  50  93 CALM      29.80S FOG              
PRESQUE ISLE   FOG       50  50 100 CALM      29.82S VSB 3/4          
FRENCHVILLE    FAIR      53  47  79 W8        29.80S                  
CARIBOU        FAIR      53  50  89 SW5       29.80S                  
$$

NHZ002-005-008-009-011-012-014-231000-
NEW HAMPSHIRE
  
CITY           SKY/WX    TMP DP  RH WIND       PRES   REMARKS
PORTSMOUTH     CLOUDY    68  56  64 CALM      29.87R                  
ROCHESTER      MOCLDY    64  57  78 CALM      29.89R                  
NASHUA         CLOUDY    69  59  70 W6        29.91S                  
MANCHESTER     MOCLDY    69  58  67 W3        29.89S                  
CONCORD        MOCLDY    63  56  78 W3        29.91R                  
LACONIA        FAIR      62  54  74 W5        29.92S                  
PLYMOUTH       FAIR      55  53  91 W6        29.92S                  
BERLIN         NOT AVBL                                               
WHITEFIELD     FAIR      47  45  93 CALM      29.93S                  
JAFFREY        CLOUDY    65  54  67 W3        29.96R                  
KEENE          FAIR      60  56  86 CALM      29.94S                  
LEBANON        FOG       56  53  90 CALM      29.94S VSB 1/4          
MT WASHINGTON  FOG       41  41 100 NW43        N/A  VSB 0            
$$

VTZ005-007-008-231000-
VERMONT
  
CITY           SKY/WX    TMP DP  RH WIND       PRES   REMARKS
ST JOHNSBURY     N/A     54  54 100 MISG      29.91S                  
MONTPELIER     FAIR      54  52  93 CALM      29.98S                  
BURLINGTON     FAIR      59  54  83 S5        29.93S                  
$$

MAZ007-012-024-CTZ003-RIZ002-NYZ038-NYZ072-231000-
SOUTHERN NEW ENGLAND AND NY
  
CITY           SKY/WX    TMP DP  RH WIND       PRES   REMARKS
BOSTON         CLOUDY    74  54  49 NW6       29.89S                  
WORCESTER      CLOUDY    65  53  65 W8        29.94R                  
NANTUCKET      MOCLDY    71  69  93 W8        29.90R                  
PROVIDENCE     LGT RAIN  70  59  68 N8        29.91R                  
HARTFORD       CLOUDY    66  60  81 N6        29.92F                  
ALBANY         FAIR      59  54  83 CALM      29.97R                  
NEW YORK CITY  LGT RAIN  73  66  78 N10       29.92R                  
$$

ANZ081-ANZ082-ANZ150-NHZ014-MEZ023>029-231000-
COASTAL MARINE OBSERVATIONS
  
STATION/POSITION TIME  TEMP    WIND        PRES    WAVE
                       AIR SEA DIR/SP/G            HT/PER
                 (UTC) (F)     (DEG/KT/KT) (MB)    (FT/S)
MATINICUS ROCK   0850   65                 1010.3R
ISLE OF SHOALS   0800   70     300/ 13/ 14 1011.0R
JEFFREYS LEDGE   0838      70                N/A     3/ 8
CASHES LEDGE BUO 0850   66 63  330/  8/  8 1011.2S   3/ 9
GEORGES BANK BUO 0850   69 65  220/  8/ 10 1012.8R   7/ 8
$$

.............KEY..............
   WCI - WIND CHILL
   TC  - TEMPERATURE IN CELSIUS
   VSB - VISIBILITY IN MILES
   HX  - HEAT INDEX
   FAIR- INDICATES FEW OR NO CLOUDS BELOW 12,000 FT, WITH NO 
         SIGNIFICANT WEATHER AND/OR OBSTRUCTIONS TO VISIBILITY.